FW7026 Weather Reports


Display with metric or nautical units.
time (UTC)temp
F
wind
direction
speed
MPH
gust
MPH
rain 1hr
in
rain 24hr
in
rain mn
in
humidity
%
barometer
mb
20260510023108 44 120 0.0 0.0 0.00 0.00 0.00 58 1011.6
20260510022607 45 180 0.0 0.0 0.00 0.00 0.00 57 1011.9
20260510022102 45 158 0.0 0.0 0.00 0.00 0.00 56 1011.6
20260510021558 45 223 0.0 0.0 0.00 0.00 0.00 56 1011.6
20260510021056 45 296 0.0 0.0 0.00 0.00 0.00 56 1011.6
20260510020550 46 93 0.0 0.0 0.00 0.00 0.00 55 1011.6
20260510020046 46 192 0.0 0.0 0.00 0.00 0.00 55 1011.6
20260510015542 46 121 0.0 0.0 0.00 0.00 0.00 54 1011.6
20260510015038 46 233 0.0 0.0 0.00 0.00 0.00 54 1011.6
20260510014534 47 213 0.0 0.0 0.00 0.00 0.00 52 1011.6
20260510014032 47 179 0.0 13.0 0.00 0.00 0.00 51 1011.6
20260510013526 47 179 0.0 0.0 0.00 0.00 0.00 51 1011.6
20260510013022 47 211 0.0 0.0 0.00 0.00 0.00 51 1011.6
20260510012516 47 244 0.0 0.0 0.00 0.00 0.00 50 1011.6
20260510012013 47 193 0.0 0.0 0.00 0.00 0.00 49 1011.6
20260510011507 48 189 0.0 0.0 0.00 0.00 0.00 49 1011.6
20260510011003 48 189 0.0 0.0 0.00 0.00 0.00 48 1011.6
20260510010500 48 184 0.0 0.0 0.00 0.00 0.00 47 1011.2
20260510005957 49 193 0.0 0.0 0.00 0.00 0.00 46 1011.2
20260510005453 49 74 0.0 0.0 0.00 0.00 0.00 46 1011.2
20260510004951 49 192 0.0 0.0 0.00 0.00 0.00 45 1010.9
20260510004447 50 172 0.0 2.0 0.00 0.00 0.00 44 1010.9
20260510003946 50 248 0.0 0.0 0.00 0.00 0.00 44 1010.9
20260510003442 50 146 0.0 2.0 0.00 0.00 0.00 44 1010.9
20260510002943 50 223 0.0 0.0 0.00 0.00 0.00 44 1010.9
20260510002439 50 323 0.0 0.0 0.00 0.00 0.00 43 1010.9
20260510001935 50 170 0.0 0.0 0.00 0.00 0.00 43 1010.9
20260510001433 50 250 0.0 0.0 0.00 0.00 0.00 41 1010.6
20260510000931 50 205 0.0 0.0 0.00 0.00 0.00 41 1010.6
20260510000427 51 111 0.0 0.0 0.00 0.00 0.00 40 1010.6
20260509235923 51 178 0.0 0.0 0.00 0.00 0.00 40 1010.6
20260509235420 51 137 0.0 0.0 0.00 0.00 0.00 39 1010.6
20260509234916 51 167 0.0 0.0 0.00 0.00 0.00 39 1010.6
20260509234413 51 208 0.0 0.0 0.00 0.00 0.00 38 1010.6
20260509233911 52 174 0.0 0.0 0.00 0.00 0.00 37 1010.6
20260509233409 52 206 0.0 0.0 0.00 0.00 0.00 37 1010.2
20260509232904 53 178 0.0 0.0 0.00 0.00 0.00 36 1010.6
20260509232403 53 156 0.0 0.0 0.00 0.00 0.00 36 1010.2
20260509231858 53 188 0.0 0.0 0.00 0.00 0.00 36 1010.2
20260509231355 54 222 0.0 0.0 0.00 0.00 0.00 35 1010.2
20260509230853 54 157 0.0 2.0 0.00 0.00 0.00 34 1010.6
20260509230350 54 95 0.0 0.0 0.00 0.00 0.00 35 1010.2
20260509225845 54 201 0.0 0.0 0.00 0.00 0.00 34 1010.2
20260509225342 54 202 0.0 0.0 0.00 0.00 0.00 33 1010.2
20260509224838 54 131 0.0 0.0 0.00 0.00 0.00 33 1009.9
20260509224334 55 224 0.0 0.0 0.00 0.00 0.00 33 1010.2
20260509223831 55 193 0.0 0.0 0.00 0.00 0.00 33 1009.9
20260509223328 55 206 0.0 0.0 0.00 0.00 0.00 33 1009.9
20260509222825 56 163 0.0 0.0 0.00 0.00 0.00 32 1009.9
20260509222320 56 174 1.0 2.0 0.00 0.00 0.00 31 1009.9
20260509221815 56 215 0.0 0.0 0.00 0.00 0.00 32 1009.9
20260509221313 56 188 0.0 0.0 0.00 0.00 0.00 32 1009.9
20260509220808 56 170 0.0 0.0 0.00 0.00 0.00 32 1009.9
20260509220304 56 185 0.0 0.0 0.00 0.00 0.00 32 1009.9
20260509215800 56 173 0.0 0.0 0.00 0.00 0.00 32 1009.9
20260509215257 56 161 0.0 0.0 0.00 0.00 0.00 31 1009.5
20260509214754 56 187 0.0 0.0 0.00 0.00 0.00 31 1009.9
20260509214251 57 197 0.0 0.0 0.00 0.00 0.00 30 1009.5
20260509213748 58 167 0.0 0.0 0.00 0.00 0.00 30 1009.9
20260509213243 58 235 0.0 8.0 0.00 0.00 0.00 28 1009.9
20260509212741 58 158 0.0 0.0 0.00 0.00 0.00 28 1009.9
20260509212238 58 190 0.0 0.0 0.00 0.00 0.00 31 1009.9
20260509211734 58 274 0.0 0.0 0.00 0.00 0.00 29 1009.9
20260509211230 58 219 0.0 5.0 0.00 0.00 0.00 28 1009.5
20260509210726 59 164 0.0 2.0 0.00 0.00 0.00 28 1009.5
20260509210224 59 192 0.0 0.0 0.00 0.00 0.00 28 1009.5
20260509205719 59 236 0.0 0.0 0.00 0.00 0.00 27 1009.5
20260509205219 59 200 0.0 0.0 0.00 0.00 0.00 27 1009.5
20260509204715 58 73 0.0 0.0 0.00 0.00 0.00 28 1009.9
20260509204211 59 167 0.0 0.0 0.00 0.00 0.00 28 1009.9
20260509203707 59 215 0.0 0.0 0.00 0.00 0.00 28 1009.5
20260509203206 58 101 0.0 0.0 0.00 0.00 0.00 30 1009.5
20260509202701 58 198 0.0 15.0 0.00 0.00 0.00 29 1009.5
20260509202156 58 232 0.0 0.0 0.00 0.00 0.00 29 1009.5
20260509201651 58 75 0.0 0.0 0.00 0.00 0.00 30 1009.5
20260509201149 59 149 0.0 0.0 0.00 0.00 0.00 30 1009.5
20260509200644 59 59 0.0 0.0 0.00 0.00 0.00 29 1009.5
20260509200140 58 177 0.0 0.0 0.00 0.00 0.00 28 1009.5
20260509195636 58 163 0.0 0.0 0.00 0.00 0.00 29 1009.5
20260509195131 59 233 0.0 0.0 0.00 0.00 0.00 27 1009.5
20260509194631 59 194 0.0 0.0 0.00 0.00 0.00 28 1009.5
20260509194128 59 224 0.0 0.0 0.00 0.00 0.00 29 1009.5
20260509193623 59 179 0.0 0.0 0.00 0.00 0.00 27 1009.5
20260509193114 61 248 0.0 0.0 0.00 0.00 0.00 26 1009.5
20260509192611 60 166 0.0 0.0 0.00 0.00 0.00 26 1009.5
20260509192105 60 254 0.0 0.0 0.00 0.00 0.00 25 1009.5
20260509191601 61 255 0.0 0.0 0.00 0.00 0.00 29 1009.5
20260509191057 61 149 0.0 0.0 0.00 0.00 0.00 25 1009.5
20260509190554 61 248 0.0 2.0 0.00 0.00 0.00 26 1009.5
20260509190052 60 205 0.0 10.0 0.00 0.00 0.00 28 1009.5
20260509185549 58 143 0.0 0.0 0.00 0.00 0.00 29 1009.5
20260509185045 59 254 0.0 0.0 0.00 0.00 0.00 28 1009.9
20260509184543 58 177 0.0 0.0 0.00 0.00 0.00 30 1009.9
20260509184039 57 220 0.0 2.0 0.00 0.00 0.00 32 1009.9
20260509183534 57 241 0.0 0.0 0.00 0.00 0.00 31 1009.9
20260509183025 57 213 0.0 0.0 0.00 0.00 0.00 31 1009.9
20260509182521 59 179 0.0 2.0 0.00 0.00 0.00 30 1009.9
20260509182019 59 318 0.0 0.0 0.00 0.00 0.00 27 1009.9
20260509181517 58 127 0.0 0.0 0.00 0.00 0.00 29 1009.5
20260509181014 59 219 0.0 0.0 0.00 0.00 0.00 31 1009.9
20260509180509 57 148 1.0 5.0 0.00 0.00 0.00 32 1009.5
20260509180008 56 206 0.0 0.0 0.00 0.00 0.00 30 1009.9
20260509175502 57 172 0.0 0.0 0.00 0.00 0.00 30 1009.9
20260509174959 57 208 0.0 0.0 0.00 0.00 0.00 30 1009.9
20260509174456 58 135 0.0 8.0 0.00 0.00 0.00 30 1009.9
20260509173950 60 244 0.0 0.0 0.00 0.00 0.00 29 1009.9
20260509173445 57 258 0.0 0.0 0.00 0.00 0.00 29 1009.9
20260509172942 56 261 0.0 2.0 0.00 0.00 0.00 29 1010.2
20260509172439 56 255 0.0 10.0 0.00 0.00 0.00 30 1009.9
20260509171934 56 157 0.0 2.0 0.00 0.00 0.00 31 1009.9
20260509171431 56 233 0.0 0.0 0.00 0.00 0.00 30 1009.9
20260509170927 57 283 0.0 0.0 0.00 0.00 0.00 31 1009.9
20260509170423 55 222 0.0 10.0 0.00 0.00 0.00 31 1009.9
20260509165919 55 255 0.0 10.0 0.00 0.00 0.00 32 1009.9
20260509165413 57 174 0.0 0.0 0.00 0.00 0.00 31 1010.2
20260509164909 57 243 1.0 5.0 0.00 0.00 0.00 32 1010.2
20260509164405 56 256 0.0 0.0 0.00 0.00 0.00 31 1009.9
20260509163901 56 208 0.0 0.0 0.00 0.00 0.00 29 1009.9
20260509163358 56 227 0.0 2.0 0.00 0.00 0.00 29 1009.9
20260509162857 58 288 0.0 0.0 0.00 0.00 0.00 33 1009.9
20260509162356 56 283 0.0 0.0 0.00 0.00 0.00 32 1010.2
20260509161852 55 147 0.0 5.0 0.00 0.00 0.00 34 1010.2
20260509161348 54 193 0.0 0.0 0.00 0.00 0.00 33 1009.9
20260509160844 55 264 0.0 0.0 0.00 0.00 0.00 38 1010.2
20260509160340 54 220 0.0 0.0 0.00 0.00 0.00 38 1010.2
20260509155835 53 186 0.0 0.0 0.00 0.00 0.00 41 1010.2
20260509155332 54 244 0.0 2.0 0.00 0.00 0.00 38 1010.2
20260509154828 56 253 0.0 2.0 0.00 0.00 0.00 37 1010.2
20260509154325 53 337 0.0 0.0 0.00 0.00 0.00 39 1010.2
20260509153822 53 222 0.0 0.0 0.00 0.00 0.00 39 1010.6
20260509153318 52 358 0.0 0.0 0.00 0.00 0.00 39 1010.6
20260509152815 53 218 0.0 0.0 0.00 0.00 0.00 39 1010.6
20260509152311 53 261 0.0 0.0 0.00 0.00 0.00 38 1010.2
20260509151809 53 194 0.0 0.0 0.00 0.00 0.00 39 1010.6
20260509151305 53 241 0.0 2.0 0.00 0.00 0.00 38 1010.6
20260509150804 53 229 0.0 0.0 0.00 0.00 0.00 39 1010.6
20260509150301 53 234 0.0 0.0 0.00 0.00 0.00 39 1010.6
20260509145758 52 257 0.0 2.0 0.00 0.00 0.00 37 1010.6
20260509145257 53 214 0.0 0.0 0.00 0.00 0.00 36 1010.6
20260509144754 54 167 0.0 0.0 0.00 0.00 0.00 38 1010.6
20260509144251 55 209 0.0 0.0 0.00 0.00 0.00 36 1010.6
20260509143748 55 241 0.0 0.0 0.00 0.00 0.00 36 1010.2
20260509143246 55 150 0.0 5.0 0.00 0.00 0.00 36 1010.6
20260509142741 53 107 0.0 0.0 0.00 0.00 0.00 40 1010.6
20260509142238 54 205 0.0 0.0 0.00 0.00 0.00 41 1010.6
20260509141733 55 254 0.0 0.0 0.00 0.00 0.00 38 1010.6
20260509141231 55 201 0.0 0.0 0.00 0.00 0.00 38 1010.6
20260509140728 55 253 0.0 0.0 0.00 0.00 0.00 39 1010.9
20260509140225 54 128 0.0 0.0 0.00 0.00 0.00 41 1010.6
20260509135722 54 161 0.0 0.0 0.00 0.00 0.00 42 1010.6
20260509135220 54 191 0.0 0.0 0.00 0.00 0.00 43 1010.6
20260509134717 53 236 0.0 0.0 0.00 0.00 0.00 41 1010.6
20260509134214 53 244 0.0 0.0 0.00 0.00 0.00 44 1010.6
20260509133711 53 217 0.0 0.0 0.00 0.00 0.00 44 1010.6
20260509133208 53 167 0.0 0.0 0.00 0.00 0.00 44 1010.6
20260509132707 53 113 0.0 0.0 0.00 0.00 0.00 45 1010.6
20260509132205 52 144 0.0 0.0 0.00 0.00 0.00 45 1010.6
20260509131701 52 222 0.0 0.0 0.00 0.00 0.00 47 1010.6
20260509131158 53 272 0.0 0.0 0.00 0.00 0.00 46 1010.6
20260509130653 52 157 0.0 0.0 0.00 0.00 0.00 47 1010.6
20260509130150 51 225 0.0 0.0 0.00 0.00 0.00 49 1010.6
20260509125646 51 232 0.0 0.0 0.00 0.00 0.00 46 1010.6
20260509125143 51 288 0.0 0.0 0.00 0.00 0.00 48 1010.6
20260509124640 50 254 0.0 0.0 0.00 0.00 0.00 49 1010.6
20260509124137 50 177 0.0 0.0 0.00 0.00 0.00 49 1010.6
20260509123634 49 204 0.0 0.0 0.00 0.00 0.00 50 1010.6
20260509123131 50 246 0.0 0.0 0.00 0.00 0.00 50 1010.6
20260509122627 48 221 0.0 0.0 0.00 0.00 0.00 53 1010.6
20260509122124 49 226 0.0 0.0 0.00 0.00 0.00 51 1010.6
20260509121621 50 220 0.0 0.0 0.00 0.00 0.00 49 1010.2
20260509121119 49 238 0.0 0.0 0.00 0.00 0.00 52 1010.2
20260509120616 49 311 0.0 0.0 0.00 0.00 0.00 52 1010.2
20260509120115 48 193 0.0 0.0 0.00 0.00 0.00 53 1010.2
20260509115612 48 134 0.0 0.0 0.00 0.00 0.00 53 1010.2
20260509115109 47 205 0.0 0.0 0.00 0.00 0.00 54 1010.2
20260509114607 45 245 0.0 0.0 0.00 0.00 0.00 56 1010.2
20260509114106 45 242 0.0 0.0 0.00 0.00 0.00 57 1009.9
20260509113603 44 174 0.0 0.0 0.00 0.00 0.00 60 1010.2
20260509113101 44 236 0.0 0.0 0.00 0.00 0.00 61 1009.9
20260509112557 43 191 0.0 0.0 0.00 0.00 0.00 63 1010.2
20260509112054 42 196 0.0 0.0 0.00 0.00 0.00 63 1009.9
20260509111551 42 192 0.0 0.0 0.00 0.00 0.00 64 1009.9
20260509111048 41 240 0.0 0.0 0.00 0.00 0.00 65 1009.9
20260509110545 40 186 0.0 0.0 0.00 0.00 0.00 66 1009.9
20260509110042 40 256 0.0 0.0 0.00 0.00 0.00 66 1009.9
20260509105540 40 190 0.0 0.0 0.00 0.00 0.00 66 1009.9
20260509105038 40 214 0.0 0.0 0.00 0.00 0.00 66 1009.5
20260509104534 40 196 0.0 0.0 0.00 0.00 0.00 68 1009.5
20260509104031 40 183 0.0 0.0 0.00 0.00 0.00 69 1009.5
20260509103529 39 210 0.0 0.0 0.00 0.00 0.00 71 1009.5
20260509103027 39 161 0.0 0.0 0.00 0.00 0.00 72 1009.5
20260509102524 38 180 0.0 0.0 0.00 0.00 0.00 74 1009.1
20260509102021 37 152 0.0 0.0 0.00 0.00 0.00 76 1009.1
20260509101517 37 193 0.0 0.0 0.00 0.00 0.00 78 1009.1
20260509101014 35 177 0.0 0.0 0.00 0.00 0.00 78 1009.1
20260509100512 35 193 0.0 0.0 0.00 0.00 0.00 78 1008.8
20260509100009 34 199 0.0 0.0 0.00 0.00 0.00 78 1008.8
20260509095505 34 195 0.0 0.0 0.00 0.00 0.00 78 1008.8
20260509095003 34 197 0.0 0.0 0.00 0.00 0.00 78 1008.8
20260509094459 35 189 0.0 0.0 0.00 0.00 0.00 78 1008.8
20260509093956 35 200 0.0 0.0 0.00 0.00 0.00 78 1008.8
20260509093454 35 203 0.0 0.0 0.00 0.00 0.00 78 1008.8
20260509092951 34 195 0.0 0.0 0.00 0.00 0.00 78 1008.8
20260509092449 34 197 0.0 0.0 0.00 0.00 0.00 78 1008.4
20260509091947 34 190 0.0 0.0 0.00 0.00 0.00 78 1008.4
20260509091438 34 199 0.0 0.0 0.00 0.00 0.00 77 1008.4
20260509090936 34 205 0.0 0.0 0.00 0.00 0.00 77 1008.4
20260509090433 33 201 0.0 0.0 0.00 0.00 0.00 76 1008.4
20260509085931 33 198 0.0 0.0 0.00 0.00 0.00 76 1008.4
20260509085427 34 179 0.0 0.0 0.00 0.00 0.00 75 1008.4
20260509084923 34 180 0.0 0.0 0.00 0.00 0.00 75 1008.4
20260509084420 34 192 0.0 0.0 0.00 0.00 0.00 75 1008.4
20260509083918 35 194 0.0 0.0 0.00 0.00 0.00 75 1008.4
20260509083415 35 187 0.0 0.0 0.00 0.00 0.00 74 1008.1
20260509082911 35 196 0.0 0.0 0.00 0.00 0.00 74 1008.1
20260509082409 36 193 0.0 0.0 0.00 0.00 0.00 74 1008.1
20260509081905 36 204 0.0 0.0 0.00 0.00 0.00 74 1008.1
20260509081403 36 201 0.0 0.0 0.00 0.00 0.00 74 1008.4
20260509080900 36 191 0.0 0.0 0.00 0.00 0.00 73 1008.4
20260509080358 36 188 0.0 0.0 0.00 0.00 0.00 73 1008.1
20260509075856 36 194 0.0 0.0 0.00 0.00 0.00 73 1008.1
20260509075353 37 198 0.0 0.0 0.00 0.00 0.00 72 1008.1
20260509074850 37 192 0.0 0.0 0.00 0.00 0.00 72 1008.1
20260509074348 37 190 0.0 0.0 0.00 0.00 0.00 71 1008.1
20260509073843 37 187 0.0 0.0 0.00 0.00 0.00 71 1008.1
20260509073340 37 192 0.0 0.0 0.00 0.00 0.00 70 1007.7
20260509072837 38 195 0.0 0.0 0.00 0.00 0.00 70 1008.1
20260509072333 38 195 0.0 0.0 0.00 0.00 0.00 70 1008.1
20260509071830 38 183 0.0 0.0 0.00 0.00 0.00 70 1008.1
20260509071327 38 195 0.0 0.0 0.00 0.00 0.00 69 1008.1
20260509070824 39 161 0.0 0.0 0.00 0.00 0.00 69 1007.7
20260509070321 39 212 0.0 0.0 0.00 0.00 0.00 69 1007.7
20260509065818 39 220 0.0 0.0 0.00 0.00 0.00 68 1007.7
20260509065314 39 225 0.0 0.0 0.00 0.00 0.00 68 1007.7
20260509064809 39 190 0.0 0.0 0.00 0.00 0.00 68 1007.7
20260509064307 39 213 0.0 0.0 0.00 0.00 0.00 67 1007.7
20260509063805 39 242 0.0 0.0 0.00 0.00 0.00 68 1007.7
20260509063301 39 217 0.0 0.0 0.00 0.00 0.00 68 1007.7
20260509062758 39 214 0.0 0.0 0.00 0.00 0.00 68 1007.7
20260509062255 39 216 0.0 0.0 0.00 0.00 0.00 67 1007.7
20260509061752 39 213 0.0 0.0 0.00 0.00 0.00 68 1007.7
20260509061250 39 205 0.0 0.0 0.00 0.00 0.00 68 1007.7
20260509060747 39 217 0.0 0.0 0.00 0.00 0.00 67 1007.4
20260509060243 39 242 0.0 0.0 0.00 0.00 0.00 68 1007.4
20260509055739 39 217 0.0 0.0 0.00 0.00 0.00 68 1007.4
20260509055235 39 220 0.0 0.0 0.00 0.00 0.00 68 1007.4
20260509054732 38 242 0.0 0.0 0.00 0.00 0.00 68 1007.4
20260509054229 39 196 0.0 0.0 0.00 0.00 0.00 68 1007.4
20260509053727 39 198 0.0 0.0 0.00 0.00 0.00 68 1007.4
20260509053224 39 183 0.0 0.0 0.00 0.00 0.00 68 1007.4
20260509052722 38 176 0.0 0.0 0.00 0.00 0.00 68 1007.1
20260509052219 38 225 0.0 0.0 0.00 0.00 0.00 69 1007.1
20260509051717 38 202 0.0 0.0 0.00 0.00 0.00 69 1007.1
20260509051215 38 220 0.0 0.0 0.00 0.00 0.00 69 1007.1
20260509050711 38 223 0.0 0.0 0.00 0.00 0.00 69 1007.1
20260509050208 37 237 0.0 0.0 0.00 0.00 0.00 70 1007.1
20260509045705 37 228 0.0 0.0 0.00 0.00 0.00 70 1007.1
20260509045202 37 209 0.0 0.0 0.00 0.00 0.00 70 1007.1
20260509044659 37 225 0.0 0.0 0.00 0.00 0.00 71 1007.1
20260509044156 37 202 0.0 0.0 0.00 0.00 0.00 70 1007.1
20260509043653 37 203 0.0 0.0 0.00 0.00 0.00 70 1006.7
20260509043149 37 200 0.0 0.0 0.00 0.00 0.00 70 1006.7
20260509042645 37 210 0.0 0.0 0.00 0.00 0.00 70 1006.7
20260509042141 37 220 0.0 0.0 0.00 0.00 0.00 69 1006.7
20260509041638 38 211 0.0 0.0 0.00 0.00 0.00 69 1006.7
20260509041136 38 207 0.0 0.0 0.00 0.00 0.00 69 1006.7
20260509040634 38 202 0.0 0.0 0.00 0.00 0.00 69 1006.7
20260509040131 39 205 0.0 0.0 0.00 0.00 0.00 69 1006.7
20260509035627 39 219 0.0 0.0 0.00 0.00 0.00 69 1006.7
20260509035124 39 205 0.0 0.0 0.00 0.00 0.00 69 1006.7
20260509034622 39 202 0.0 0.0 0.00 0.00 0.00 68 1006.7
20260509034119 39 229 0.0 0.0 0.00 0.00 0.00 68 1006.4
20260509033615 39 196 0.0 0.0 0.00 0.00 0.00 68 1006.4
20260509033112 39 208 0.0 0.0 0.00 0.00 0.00 68 1006.7
20260509032610 39 194 0.0 0.0 0.00 0.00 0.00 68 1006.4
20260509032107 39 200 0.0 0.0 0.00 0.00 0.00 68 1006.4
20260509031604 39 197 0.0 0.0 0.00 0.00 0.00 67 1006.4
20260509031102 39 188 0.0 0.0 0.00 0.00 0.00 67 1006.4
20260509030600 39 239 0.0 0.0 0.00 0.00 0.00 67 1006.4
20260509030056 39 209 0.0 0.0 0.00 0.00 0.00 67 1006.4
20260509025552 40 190 0.0 0.0 0.00 0.00 0.00 66 1006.4
20260509025048 40 192 0.0 0.0 0.00 0.00 0.00 65 1006.7
20260509024544 41 196 0.0 0.0 0.00 0.00 0.00 64 1006.4
20260509024040 41 203 0.0 0.0 0.00 0.00 0.00 64 1006.4
20260509023538 42 226 0.0 0.0 0.00 0.00 0.00 63 1006.1